User: anonymous   Login
Location: Palo Alto
(37.4420°N, 122.1420°W)
Time: 18:22:31
(UTC-07:00)
Language:

ESTCUBE 1 - Orbit

View from above orbital plane
View from above orbital plane
View from above satellite
View from above satellite

Ground track
Ground track

The orbit data is extracted from the following two-line orbital elements,

1 39161U 13021C   20297.45308025  .00000168  00000-0  34266-4 0  9994
2 39161  97.9602  17.8783 0009163 181.7443 178.3740 14.72363104400876
Epoch (UTC): 23 October 2020 10:52:26
Eccentricity: 0.0009163
inclination: 97.9602°
perigee height: 647 km
apogee height: 660 km
right ascension of ascending node: 17.8783°
argument of perigee: 181.7443°
revolutions per day: 14.72363104
mean anomaly at epoch: 178.3740°
orbit number at epoch: 40087

The dashed part of the orbit path shows where the satellite is in the earth's shadow,  

DLR